[[{"header":{"parameterUnit":"m.s-1","parameterCategory":2,"la1":30.2991,"la2":30.254,"lo1":-89.0895,"lo2":-89.0444,"dy":0.0017,"dx":0.0017,"nx":28,"ny":28,"refTime":"2024-08-22T21:00:00:Z","depth":"0","parameterNumber":2,"parameterNumberName":"U-component_of_CURRENTS"},"data":[0,0,0,0,0,0,0,0,0,0,0,0,0,0,0,0,0,0,0,0,0,0,0,0,0,0,0,0,0,0,0,0,0,0,0,0,0,0,0,0,0,0,0,0,0,0,0,0,0,0,0,0,0,0,0,0,0,0,0.1995,0.1995,0,0.1971,0.197,0.197,0.1956,0.1956,0.1957,0.1957,0.1901,0.1899,0.1898,0,0,0,0,0,0,0,0,0,0,0,0,0,0.2008,0.2008,0.1995,0.1995,0.1995,0.1971,0.197,0.197,0.1956,0.1956,0.1957,0.1957,0.1901,0.19,0.1898,0,0,0,0,0,0,0,0,0,0,0,0,0,0.1992,0.2008,0.1995,0.1987,0.1986,0.1971,0.197,0.197,0.1956,0.1956,0.1957,0.1957,0.1902,0.19,0.1897,0.1876,0,0,0.189,0.1889,0,0,0,0,0,0,0,0,0.1993,0.1992,0.1988,0.1988,0.1987,0.1969,0.1955,0.1938,0.1956,0.1965,0.1957,0.1957,0.1922,0.1918,0.191,0.1873,0.1871,0.1889,0.1888,0.1887,0.1886,0,0,0,0,0,0,0,0.1994,0.1993,0.1983,0.1988,0.1987,0.1978,0.1976,0.1951,0.194,0.1964,0.1964,0.1965,0.1921,0.1912,0.1908,0.187,0.1889,0.1887,0.1886,0.1885,0.1846,0.1847,0,0,0,0,0,0,0.2004,0.1994,0.1984,0.1982,0.1994,0.1978,0.1975,0.1972,0.1941,0.1937,0.1965,0.1965,0.1916,0.1911,0.1906,0.1905,0.1887,0.1884,0.1883,0.1846,0.1846,0.1847,0,0,0,0,0,0,0.2004,0.2003,0.1985,0.199,0.1987,0.1977,0.1974,0.1972,0.1968,0.1942,0.1937,0.1965,0.1916,0.191,0.1892,0.1902,0.1883,0.1881,0.1845,0.1846,0.1847,0.1886,0,0,0,0,0,0,0.2004,0.2003,0.2002,0.199,0.1987,0.1982,0.1974,0.1971,0.1969,0.1969,0.194,0.1935,0.1916,0.1896,0.189,0.1898,0.1879,0.1845,0.1846,0.1846,0.1884,0.1888,0.1891,0,0,0,0,0,0.2005,0.2003,0.2002,0.2001,0.1987,0.1982,0.198,0.1972,0.1969,0.1969,0.1951,0.1936,0.1898,0.1894,0.1887,0.1894,0.1844,0.1845,0.1846,0.1882,0.1887,0.1891,0,0,0,0,0,0,0.2003,0.2001,0.2,0.1996,0.1994,0.1981,0.1979,0.1975,0.196,0.1958,0.1935,0.1928,0.1918,0.19,0.1897,0.1888,0.1871,0.1871,0.1901,0.1905,0.1909,0.1904,0.1877,0,0,0,0,0,0.2004,0.2003,0.2001,0.1997,0.1999,0.199,0.1987,0.1982,0.197,0.1964,0.1944,0.1926,0.1915,0.1906,0.1888,0.1877,0.1881,0.188,0.1883,0.1886,0.1878,0.1904,0.191,0.185,0.185,0.185,0,0,0.2,0.2001,0.1998,0.1997,0.1993,0.199,0.1988,0.1985,0.198,0.1959,0.1942,0.1933,0.1915,0.1907,0.1901,0.1894,0.1909,0.1888,0.1891,0.188,0.1906,0.1912,0.1917,0.1851,0.1851,0.1851,0,0,0.1991,0.1995,0.1991,0.1992,0.1993,0.1992,0.1995,0.1985,0.1981,0.1968,0.1958,0.1956,0.1928,0.1923,0.1916,0.1927,0.1926,0.1926,0.1939,0.1965,0.1971,0.1975,0.2004,0.2011,0.1929,0.1929,0.1929,0,0.1986,0.1982,0.1989,0.1987,0.1987,0.1995,0.1989,0.1987,0.1972,0.1971,0.1968,0.1951,0.1936,0.1937,0.1943,0.1935,0.1952,0.1925,0.1971,0.1975,0.1979,0.2007,0.2014,0.1931,0.1931,0.1931,0.1931,0,0.1973,0.1972,0.1972,0.1973,0.1975,0.1973,0.1977,0.1979,0.198,0.1978,0.1981,0.1969,0.1964,0.1965,0.1954,0.1976,0.1981,0.1974,0.1962,0.1988,0.2016,0.2022,0.1934,0.1934,0.1933,0.1932,0,0,0.1946,0.1961,0.1956,0.1958,0.1968,0.1966,0.1972,0.1978,0.1988,0.1983,0.1995,0.1984,0.1992,0.1985,0.1983,0.2001,0.2049,0.2,0.2001,0.2032,0.2117,0.2119,0.2126,0.2058,0.2059,0.2059,0.2131,0,0.193,0.1926,0.1937,0.1932,0.1932,0.195,0.1956,0.1965,0.1979,0.1995,0.2004,0.2011,0.1998,0.2007,0.2024,0.2043,0.2065,0.203,0.2083,0.2084,0.2086,0.2133,0.2044,0.21,0.2138,0.2139,0.2139,0,0.1902,0.1908,0.19,0.1919,0.1921,0.1922,0.1944,0.1954,0.1988,0.2,0.2022,0.2034,0.206,0.2047,0.2097,0.2079,0.2097,0.211,0.2113,0.2101,0.2098,0.2076,0.211,0.2059,0.2149,0.2148,0.2148,0,0.1867,0.1877,0.1873,0.1875,0.1899,0.1903,0.1922,0.1952,0.1965,0.2013,0.2036,0.2067,0.2095,0.212,0.2155,0.2132,0.2219,0.2191,0.2207,0.2208,0.2132,0.2124,0.2121,0.2223,0.2223,0.2222,0.2222,0,0.1837,0.1829,0.1858,0.1851,0.1853,0.1884,0.1894,0.1923,0.1967,0.1992,0.204,0.2073,0.2116,0.2171,0.2183,0.2232,0.2248,0.2218,0.223,0.2145,0.2138,0.2089,0.2061,0.2225,0.2224,0.2224,0.2223,0,0.1784,0.1803,0.18,0.1827,0.1832,0.1835,0.1868,0.1887,0.1942,0.1983,0.2002,0.209,0.2167,0.2217,0.2277,0.2277,0.2252,0.2324,0.2227,0.2225,0.2167,0.2144,0.2085,0.2008,0.2341,0.2341,0.2342,0,0.1753,0.1748,0.1769,0.1769,0.1777,0.179,0.1802,0.1856,0.1887,0.199,0.2015,0.2114,0.2175,0.2288,0.2318,0.2364,0.2273,0.2294,0.2218,0.2163,0.2146,0.2065,0.1997,0.214,0.2138,0.2137,0.2137,0,0.1699,0.1711,0.1714,0.1717,0.1724,0.1729,0.1763,0.1775,0.1857,0.1906,0.1997,0.206,0.2197,0.222,0.23,0.2308,0.2177,0.2274,0.2233,0.2005,0.1897,0.1829,0.2102,0.2127,0.2128,0.2129,0.2129,0.213,0.166,0.1652,0.1665,0.1657,0.1667,0.1667,0.165,0.1707,0.1741,0.1802,0.1921,0.199,0.2089,0.2195,0.2202,0.2165,0.2137,0.2074,0.206,0.199,0.1879,0.2143,0.2171,0.2172,0.2173,0.2174,0.2175,0,0.1609,0.1607,0.1605,0.1593,0.1573,0.1601,0.1617,0.1597,0.1615,0.1712,0.1778,0.1879,0.1921,0.1993,0.2031,0.1961,0.1855,0.1893,0.1738,0.1686,0.1941,0.1895,0.1843,0.1843,0.1843,0.1843,0.1843,0.1843,0.1585,0.156,0.1553,0.1497,0.1487,0.1436,0.1424,0.1422,0.1468,0.151,0.157,0.1664,0.1805,0.19,0.1863,0.1812,0.1645,0.158,0.1568,0.1741,0.1755,0.1769,0.1719,0.1631,0.1631,0.1222,0.1219,0.1217]},{"header":{"parameterUnit":"m.s-1","parameterCategory":2,"la1":30.2991,"la2":30.254,"lo1":-89.0895,"lo2":-89.0444,"dy":0.0017,"dx":0.0017,"nx":28,"ny":28,"refTime":"2024-08-22T21:00:00:Z","depth":"0","parameterNumber":3,"parameterNumberName":"V-component_of_CURRENTS"},"data":[0,0,0,0,0,0,0,0,0,0,0,0,0,0,0,0,0,0,0,0,0,0,0,0,0,0,0,0,0,0,0,0,0,0,0,0,0,0,0,0,0,0,0,0,0,0,0,0,0,0,0,0,0,0,0,0,0,0,-0.0244,-0.0244,0,-0.028,-0.0281,-0.0281,-0.0302,-0.0303,-0.0303,-0.0303,-0.0337,-0.0337,-0.0338,0,0,0,0,0,0,0,0,0,0,0,0,0,-0.02,-0.0201,-0.0244,-0.0244,-0.0245,-0.028,-0.0281,-0.0281,-0.0302,-0.0303,-0.0303,-0.0303,-0.0336,-0.0337,-0.0338,0,0,0,0,0,0,0,0,0,0,0,0,0,-0.0226,-0.0201,-0.0244,-0.026,-0.0262,-0.028,-0.0281,-0.0281,-0.0302,-0.0303,-0.0303,-0.0303,-0.0336,-0.0337,-0.0338,-0.0342,0,0,-0.0342,-0.0342,0,0,0,0,0,0,0,0,-0.0224,-0.0227,-0.0257,-0.0259,-0.0261,-0.0287,-0.0278,-0.0301,-0.0302,-0.0287,-0.0303,-0.0303,-0.032,-0.0323,-0.0328,-0.0343,-0.0345,-0.0342,-0.0343,-0.0343,-0.0344,0,0,0,0,0,0,0,-0.0222,-0.0226,-0.0258,-0.0258,-0.026,-0.0268,-0.0272,-0.0282,-0.0301,-0.0288,-0.029,-0.0294,-0.0321,-0.0327,-0.0329,-0.0345,-0.0342,-0.0343,-0.0344,-0.0344,-0.0356,-0.0356,0,0,0,0,0,0,-0.0218,-0.0224,-0.0257,-0.0259,-0.0243,-0.0269,-0.0273,-0.0278,-0.0301,-0.0305,-0.0294,-0.0295,-0.0325,-0.0328,-0.0331,-0.0322,-0.0343,-0.0344,-0.0345,-0.0356,-0.0356,-0.0356,0,0,0,0,0,0,-0.0217,-0.0221,-0.0255,-0.0243,-0.0248,-0.0269,-0.0275,-0.0279,-0.0283,-0.0306,-0.031,-0.0294,-0.0325,-0.0329,-0.0335,-0.0324,-0.0345,-0.0346,-0.0357,-0.0356,-0.0356,-0.0313,0,0,0,0,0,0,-0.0216,-0.022,-0.022,-0.0242,-0.0248,-0.0258,-0.0275,-0.028,-0.0286,-0.0288,-0.0308,-0.0311,-0.0326,-0.0333,-0.0336,-0.0326,-0.0347,-0.0357,-0.0357,-0.0356,-0.0315,-0.0311,-0.0308,0,0,0,0,0,-0.0214,-0.021,-0.0219,-0.0223,-0.0248,-0.0257,-0.026,-0.0276,-0.0286,-0.0282,-0.0297,-0.031,-0.0331,-0.0334,-0.0337,-0.0327,-0.0358,-0.0357,-0.0356,-0.0317,-0.0312,-0.0308,0,0,0,0,0,0,-0.0186,-0.0212,-0.0223,-0.0226,-0.0238,-0.0261,-0.0259,-0.0272,-0.0282,-0.0284,-0.0306,-0.0311,-0.0312,-0.0326,-0.0328,-0.0329,-0.0346,-0.0346,-0.0315,-0.0311,-0.0307,-0.0292,-0.0348,0,0,0,0,0,-0.0181,-0.0187,-0.021,-0.0211,-0.0216,-0.0238,-0.0243,-0.0254,-0.0268,-0.0273,-0.0288,-0.0303,-0.0312,-0.0316,-0.0327,-0.0327,-0.0344,-0.0323,-0.0319,-0.0316,-0.0306,-0.0325,-0.0322,-0.0353,-0.0353,-0.0353,0,0,-0.0171,-0.0186,-0.0189,-0.0206,-0.0217,-0.0215,-0.0241,-0.0245,-0.0241,-0.0275,-0.0271,-0.0291,-0.0309,-0.0309,-0.0311,-0.0318,-0.0317,-0.0315,-0.0312,-0.0304,-0.0324,-0.0321,-0.0318,-0.0352,-0.0352,-0.0352,0,0,-0.0148,-0.0165,-0.0161,-0.0169,-0.0184,-0.0196,-0.0195,-0.0215,-0.022,-0.0223,-0.0246,-0.0257,-0.0271,-0.0282,-0.0289,-0.0272,-0.0299,-0.0278,-0.0245,-0.0264,-0.0261,-0.0259,-0.0281,-0.0281,-0.0274,-0.0274,-0.0274,0,-0.0132,-0.0133,-0.0158,-0.0154,-0.0154,-0.0184,-0.0171,-0.0181,-0.0199,-0.0199,-0.0214,-0.0237,-0.0255,-0.0253,-0.0249,-0.0262,-0.028,-0.026,-0.0259,-0.0257,-0.0256,-0.0279,-0.0279,-0.0272,-0.0272,-0.0272,-0.0273,0,-0.0106,-0.0106,-0.0102,-0.0108,-0.0109,-0.0104,-0.012,-0.0122,-0.0135,-0.0148,-0.0152,-0.0181,-0.0194,-0.0203,-0.0221,-0.0218,-0.0237,-0.0253,-0.0268,-0.025,-0.0275,-0.0277,-0.0269,-0.027,-0.027,-0.0271,0,0,-0.0069,-0.0082,-0.0079,-0.0073,-0.0084,-0.0081,-0.0071,-0.0071,-0.0063,-0.0086,-0.0077,-0.0101,-0.0125,-0.0134,-0.0162,-0.0178,-0.019,-0.0208,-0.021,-0.0227,-0.0235,-0.0232,-0.0234,-0.0209,-0.0209,-0.0209,-0.0258,0,-0.0039,-0.0021,-0.0034,-0.001,-0.0001,-0.0019,-0.0004,-0.0008,-0.0021,-0.0022,-0.0053,-0.0059,-0.0096,-0.0104,-0.0125,-0.0171,-0.0192,-0.0176,-0.0252,-0.0254,-0.0251,-0.0234,-0.0217,-0.0257,-0.0259,-0.026,-0.026,0,-0.0004,0.0001,0.0028,0.0038,0.0043,0.0055,0.0071,0.0076,0.0065,0.0055,0.0036,0.0006,-0.0017,-0.0055,-0.012,-0.0109,-0.0166,-0.0206,-0.0209,-0.022,-0.0253,-0.0275,-0.026,-0.0357,-0.0263,-0.0263,-0.0262,0,0.0035,0.0048,0.0072,0.0074,0.0081,0.0097,0.0102,0.0101,0.0115,0.0096,0.0101,0.0062,0.0048,-0.0022,-0.0102,-0.0115,-0.0176,-0.0208,-0.026,-0.0261,-0.0266,-0.0267,-0.0348,-0.0257,-0.0256,-0.0256,-0.0256,0,0.0072,0.0091,0.0092,0.0104,0.0142,0.0133,0.0168,0.0165,0.0171,0.0196,0.014,0.0153,0.0056,0.0009,-0.008,-0.0164,-0.0162,-0.0246,-0.0268,-0.0251,-0.025,-0.0351,-0.0409,-0.0258,-0.0258,-0.0257,-0.0257,0,0.011,0.0109,0.0136,0.0151,0.016,0.0185,0.021,0.0235,0.0229,0.026,0.0259,0.0224,0.0167,0.0067,-0.004,-0.0124,-0.0269,-0.025,-0.0222,-0.0239,-0.0377,-0.0434,-0.0539,-0.0588,-0.0317,-0.0317,-0.0317,0,0.013,0.0147,0.0173,0.0193,0.0201,0.023,0.0259,0.0265,0.0291,0.0311,0.0334,0.0296,0.0284,0.0128,-0.0019,-0.0166,-0.0272,-0.0261,-0.028,-0.0373,-0.0453,-0.05,-0.0538,-0.0279,-0.0279,-0.0278,-0.0278,0,0.0167,0.0176,0.0197,0.0237,0.0269,0.0305,0.034,0.0375,0.0393,0.0425,0.0463,0.046,0.0327,0.0203,0.0004,-0.0108,-0.0326,-0.0262,-0.0367,-0.043,-0.0478,-0.0539,-0.0266,-0.0277,-0.0277,-0.0277,-0.0277,-0.0277,0.0197,0.0217,0.0243,0.0281,0.0321,0.0373,0.0403,0.0454,0.0513,0.0561,0.0561,0.0568,0.0387,0.0129,-0.0027,-0.0305,-0.0325,-0.0399,-0.0461,-0.0501,-0.0541,-0.026,-0.0288,-0.0288,-0.0289,-0.0289,-0.0289,0,0.0227,0.0246,0.0283,0.0326,0.0369,0.0385,0.0454,0.0487,0.0562,0.0623,0.0655,0.0575,0.0351,0.01,-0.0257,-0.0463,-0.0551,-0.0586,-0.0657,-0.0687,-0.0443,-0.0432,-0.0481,-0.0481,-0.0481,-0.0481,-0.0481,-0.0481,0.0243,0.0275,0.0288,0.0353,0.0387,0.0436,0.0474,0.0541,0.0592,0.0648,0.0656,0.0644,0.0456,-0.0124,-0.058,-0.0692,-0.0843,-0.0866,-0.096,-0.0799,-0.0787,-0.0775,-0.0779,-0.09,-0.09,-0.1171,-0.1174,-0.1176]}],[{"header":{"parameterUnit":"m.s-1","parameterCategory":2,"la1":30.2991,"la2":30.254,"lo1":-89.0895,"lo2":-89.0444,"dy":0.0017,"dx":0.0017,"nx":28,"ny":28,"refTime":"2024-08-22T21:00:00:Z","depth":"2","parameterNumber":2,"parameterNumberName":"U-component_of_CURRENTS"},"data":[0,0,0,0,0,0,0,0,0,0,0,0,0,0,0,0,0,0,0,0,0,0,0,0,0,0,0,0,0,0,0,0,0,0,0,0,0,0,0,0,0,0,0,0,0,0,0,0,0,0,0,0,0,0,0,0,0,0,0.1982,0.1982,0,0.1975,0.1975,0.1975,0.1982,0.1982,0.1982,0.1983,0.1952,0.1951,0.1949,0,0,0,0,0,0,0,0,0,0,0,0,0,0.1981,0.1981,0.1982,0.1982,0.1982,0.1975,0.1975,0.1974,0.1982,0.1982,0.1983,0.1983,0.1952,0.1951,0.1949,0,0,0,0,0,0,0,0,0,0,0,0,0,0.1978,0.1981,0.1982,0.1986,0.1986,0.1975,0.1975,0.1974,0.1981,0.1982,0.1983,0.1983,0.1953,0.1951,0.1949,0.1927,0,0,0.1944,0.1943,0,0,0,0,0,0,0,0,0.1978,0.1977,0.1985,0.1986,0.1986,0.1981,0.1963,0.1958,0.1981,0.1982,0.1983,0.1983,0.196,0.1957,0.1953,0.1925,0.1924,0.1944,0.1943,0.1942,0.1941,0,0,0,0,0,0,0,0.1978,0.1978,0.1978,0.1985,0.1986,0.1981,0.1981,0.1962,0.1966,0.1982,0.1983,0.1984,0.196,0.1955,0.1953,0.1923,0.1944,0.1942,0.1941,0.194,0.1918,0.1918,0,0,0,0,0,0,0.1982,0.1978,0.1978,0.1978,0.1985,0.198,0.198,0.1981,0.1967,0.1966,0.1983,0.1984,0.1958,0.1955,0.1952,0.196,0.1942,0.194,0.1939,0.1918,0.1918,0.1919,0,0,0,0,0,0,0.1982,0.1982,0.1979,0.1979,0.1978,0.198,0.198,0.198,0.1988,0.1968,0.1967,0.1992,0.1958,0.1954,0.1948,0.1958,0.1939,0.1938,0.1917,0.1918,0.1918,0.1954,0,0,0,0,0,0,0.1982,0.1982,0.1988,0.1979,0.1978,0.1982,0.198,0.198,0.1987,0.1989,0.1975,0.1972,0.1958,0.1951,0.1946,0.1955,0.1936,0.1916,0.1917,0.1918,0.1953,0.1956,0.1959,0,0,0,0,0,0.1982,0.1986,0.1989,0.1989,0.1986,0.1982,0.1981,0.1983,0.1988,0.1992,0.1986,0.1973,0.1954,0.195,0.1944,0.1953,0.1916,0.1917,0.1918,0.1951,0.1956,0.1959,0,0,0,0,0,0,0.1985,0.1987,0.199,0.1994,0.1994,0.1984,0.1989,0.199,0.1988,0.1991,0.1974,0.1971,0.197,0.1956,0.1952,0.195,0.1934,0.1935,0.1961,0.1965,0.1969,0.1964,0.1935,0,0,0,0,0,0.199,0.1994,0.1994,0.1996,0.2,0.1997,0.1998,0.1998,0.1993,0.1994,0.1983,0.1974,0.1967,0.1963,0.1951,0.1946,0.195,0.1949,0.1953,0.1956,0.1949,0.1973,0.1978,0.1922,0.1922,0.1922,0,0,0.1991,0.1992,0.1995,0.1998,0.1998,0.1998,0.1999,0.2003,0.2002,0.1989,0.1986,0.1982,0.1969,0.1967,0.1965,0.1958,0.1977,0.1957,0.196,0.1951,0.1974,0.198,0.1985,0.1923,0.1923,0.1923,0,0,0.1987,0.1998,0.2,0.2002,0.2007,0.2006,0.2011,0.2008,0.2011,0.2007,0.2002,0.2006,0.1988,0.1985,0.1981,0.1994,0.1994,0.1994,0.2006,0.203,0.2035,0.2039,0.2066,0.2073,0.1996,0.1996,0.1996,0,0.1988,0.199,0.2,0.2,0.2001,0.2012,0.2011,0.2014,0.2008,0.2011,0.2011,0.2006,0.1996,0.2,0.2007,0.2001,0.2017,0.1993,0.2035,0.204,0.2043,0.207,0.2076,0.1998,0.1998,0.1998,0.1998,0,0.1983,0.1988,0.1989,0.1994,0.1999,0.2001,0.2007,0.2015,0.2021,0.2022,0.2032,0.2026,0.2025,0.2027,0.2018,0.204,0.2045,0.2038,0.2027,0.2051,0.2078,0.2084,0.2001,0.2,0.2,0.1999,0,0,0.1964,0.1983,0.1981,0.1985,0.1997,0.1996,0.2007,0.2016,0.2029,0.2032,0.2048,0.2043,0.2052,0.2047,0.2046,0.2063,0.2109,0.2063,0.2064,0.2093,0.2172,0.215,0.2155,0.2116,0.2117,0.2118,0.2186,0,0.1954,0.1954,0.1967,0.1967,0.197,0.1989,0.1997,0.201,0.2027,0.2046,0.2057,0.2069,0.2057,0.2068,0.2084,0.2103,0.2124,0.2091,0.214,0.2142,0.2121,0.216,0.1973,0.2015,0.2192,0.2193,0.2193,0,0.1935,0.194,0.1939,0.1958,0.1962,0.1966,0.199,0.2003,0.2039,0.2054,0.2077,0.2091,0.2118,0.2106,0.2153,0.2137,0.2154,0.2166,0.2169,0.2135,0.2131,0.2015,0.2019,0.2203,0.2203,0.2202,0.2201,0,0.1901,0.1916,0.1915,0.1919,0.1943,0.195,0.1971,0.2003,0.2018,0.2067,0.2092,0.2123,0.2152,0.2175,0.2208,0.2187,0.2268,0.2242,0.2236,0.2236,0.2076,0.2059,0.2272,0.2272,0.2272,0.2271,0.2271,0,0.1874,0.1871,0.1901,0.1897,0.1902,0.1933,0.1948,0.1977,0.2022,0.2048,0.2097,0.2128,0.2172,0.2224,0.2235,0.2268,0.2295,0.2244,0.2252,0.2085,0.2069,0.2224,0.2217,0.2274,0.2273,0.2273,0.2272,0,0.1825,0.1845,0.1846,0.1875,0.1882,0.1887,0.1925,0.1944,0.2,0.2042,0.2061,0.2145,0.2214,0.2262,0.2317,0.2307,0.2335,0.2337,0.2145,0.2128,0.2276,0.2271,0.2326,0.2326,0.2325,0.2325,0.2325,0,0.1796,0.1793,0.1818,0.1819,0.1829,0.1845,0.1859,0.1915,0.1946,0.2046,0.2071,0.2162,0.2204,0.2296,0.2306,0.2335,0.2357,0.2168,0.2079,0.228,0.2282,0.2277,0.2272,0.1888,0.1884,0.1881,0.1879,0,0.1746,0.1759,0.1764,0.1769,0.1779,0.1787,0.1822,0.1835,0.1917,0.1958,0.2036,0.208,0.2184,0.2131,0.2185,0.2173,0.2146,0.2108,0.2371,0.1909,0.1873,0.1874,0.1882,0.1852,0.1854,0.1856,0.1858,0.1859,0.171,0.1703,0.1718,0.1712,0.1724,0.1726,0.1711,0.1762,0.1788,0.1824,0.1931,0.1932,0.1968,0.1951,0.1918,0.1905,0.2049,0.193,0.1935,0.1945,0.1888,0.1855,0.182,0.1822,0.1824,0.1826,0.1827,0,0.1659,0.1661,0.166,0.1651,0.1632,0.1662,0.1678,0.1649,0.165,0.1696,0.1727,0.1605,0.1572,0.1614,0.156,0.1588,0.1545,0.1508,0.1412,0.1442,0.1468,0.1382,0.1181,0.1179,0.1177,0.1175,0,0,0.1636,0.1613,0.1607,0.1555,0.1548,0.1502,0.149,0.1468,0.1474,0.1425,0.1396,0.1476,0.1554,0.1324,0.132,0.1232,0.1318,0.1187,0.1711,0.1627,0.1649,0.1725,0.163,0,0,0,0,0]},{"header":{"parameterUnit":"m.s-1","parameterCategory":2,"la1":30.2991,"la2":30.254,"lo1":-89.0895,"lo2":-89.0444,"dy":0.0017,"dx":0.0017,"nx":28,"ny":28,"refTime":"2024-08-22T21:00:00:Z","depth":"2","parameterNumber":3,"parameterNumberName":"V-component_of_CURRENTS"},"data":[0,0,0,0,0,0,0,0,0,0,0,0,0,0,0,0,0,0,0,0,0,0,0,0,0,0,0,0,0,0,0,0,0,0,0,0,0,0,0,0,0,0,0,0,0,0,0,0,0,0,0,0,0,0,0,0,0,0,-0.0105,-0.0106,0,-0.0152,-0.0152,-0.0153,-0.0193,-0.0194,-0.0194,-0.0194,-0.025,-0.0252,-0.0253,0,0,0,0,0,0,0,0,0,0,0,0,0,-0.0067,-0.0068,-0.0105,-0.0106,-0.0106,-0.0151,-0.0152,-0.0153,-0.0193,-0.0194,-0.0194,-0.0194,-0.025,-0.0251,-0.0253,0,0,0,0,0,0,0,0,0,0,0,0,0,-0.0097,-0.0068,-0.0105,-0.0131,-0.0134,-0.0151,-0.0152,-0.0153,-0.0193,-0.0194,-0.0194,-0.0195,-0.025,-0.0251,-0.0253,-0.0252,0,0,-0.0258,-0.0259,0,0,0,0,0,0,0,0,-0.0095,-0.0098,-0.0127,-0.0129,-0.0132,-0.0166,-0.0159,-0.0186,-0.0193,-0.0172,-0.0194,-0.0195,-0.0222,-0.0226,-0.0235,-0.0255,-0.0257,-0.0258,-0.0259,-0.026,-0.0261,0,0,0,0,0,0,0,-0.0093,-0.0096,-0.0125,-0.0127,-0.0131,-0.0146,-0.015,-0.0165,-0.0194,-0.0173,-0.0176,-0.018,-0.0224,-0.0233,-0.0236,-0.0258,-0.0258,-0.026,-0.0261,-0.0262,-0.029,-0.029,0,0,0,0,0,0,-0.0084,-0.0094,-0.0123,-0.0126,-0.0114,-0.0146,-0.0151,-0.0156,-0.0194,-0.02,-0.0179,-0.0181,-0.023,-0.0234,-0.0239,-0.0244,-0.026,-0.0262,-0.0263,-0.029,-0.029,-0.0289,0,0,0,0,0,0,-0.0083,-0.0086,-0.0121,-0.011,-0.0116,-0.0146,-0.0151,-0.0156,-0.0172,-0.0198,-0.0204,-0.0189,-0.0231,-0.0236,-0.0254,-0.0246,-0.0263,-0.0264,-0.029,-0.029,-0.029,-0.0252,0,0,0,0,0,0,-0.0081,-0.0085,-0.0089,-0.011,-0.0116,-0.0131,-0.015,-0.0157,-0.0172,-0.0176,-0.0209,-0.0214,-0.0231,-0.0251,-0.0255,-0.0249,-0.0265,-0.0291,-0.029,-0.029,-0.0253,-0.025,-0.0247,0,0,0,0,0,-0.008,-0.008,-0.0089,-0.0092,-0.0119,-0.0131,-0.0135,-0.0159,-0.0172,-0.0176,-0.0198,-0.0213,-0.0251,-0.0252,-0.0257,-0.0251,-0.0291,-0.029,-0.029,-0.0254,-0.025,-0.0247,0,0,0,0,0,0,-0.0064,-0.0084,-0.0095,-0.0101,-0.0114,-0.0137,-0.0144,-0.0159,-0.018,-0.0186,-0.0212,-0.0219,-0.0231,-0.0246,-0.0247,-0.0258,-0.0272,-0.0273,-0.0244,-0.024,-0.0237,-0.0222,-0.0267,0,0,0,0,0,-0.0061,-0.0067,-0.0087,-0.009,-0.0098,-0.0121,-0.013,-0.0145,-0.0165,-0.0175,-0.0197,-0.0218,-0.0231,-0.024,-0.0256,-0.0262,-0.0278,-0.0261,-0.0258,-0.0255,-0.0246,-0.0264,-0.0262,-0.0287,-0.0287,-0.0287,0,0,-0.0056,-0.0066,-0.0071,-0.0087,-0.0101,-0.0104,-0.0129,-0.014,-0.0141,-0.0177,-0.0188,-0.021,-0.0231,-0.0238,-0.0244,-0.0251,-0.0258,-0.0255,-0.0252,-0.0244,-0.0263,-0.0261,-0.0258,-0.0287,-0.0287,-0.0287,0,0,-0.0041,-0.0057,-0.0057,-0.0066,-0.0083,-0.0095,-0.0097,-0.0121,-0.0132,-0.0143,-0.0168,-0.0184,-0.0207,-0.0219,-0.0227,-0.0216,-0.0242,-0.0224,-0.0195,-0.0212,-0.021,-0.0208,-0.023,-0.023,-0.022,-0.022,-0.022,0,-0.0033,-0.0035,-0.0058,-0.0057,-0.0058,-0.0087,-0.0082,-0.0095,-0.0121,-0.0123,-0.0141,-0.0172,-0.0194,-0.0195,-0.0193,-0.0208,-0.0225,-0.0206,-0.0207,-0.0206,-0.0205,-0.0227,-0.0228,-0.0218,-0.0219,-0.0219,-0.0219,0,-0.0018,-0.002,-0.0019,-0.0026,-0.003,-0.003,-0.0046,-0.0054,-0.0071,-0.0084,-0.0095,-0.0127,-0.0143,-0.0154,-0.0171,-0.0172,-0.0189,-0.0203,-0.0215,-0.02,-0.0225,-0.0227,-0.0216,-0.0216,-0.0217,-0.0217,0,0,0.0006,-0.0006,-0.0005,-0.0,-0.0012,-0.0012,-0.0008,-0.0012,-0.0006,-0.0036,-0.0029,-0.0059,-0.0082,-0.0092,-0.0119,-0.0134,-0.0148,-0.0163,-0.0164,-0.018,-0.0191,-0.0185,-0.0187,-0.0165,-0.0165,-0.0165,-0.0213,0,0.0027,0.0039,0.0028,0.0045,0.0051,0.0034,0.0046,0.0039,0.0025,0.0021,-0.001,-0.002,-0.0056,-0.0065,-0.0086,-0.0129,-0.015,-0.0134,-0.0206,-0.0207,-0.0201,-0.0187,-0.0165,-0.0204,-0.0215,-0.0215,-0.0215,0,0.0049,0.0055,0.0075,0.0086,0.0089,0.0098,0.0112,0.0114,0.0102,0.009,0.007,0.0041,0.0017,-0.0019,-0.0082,-0.0071,-0.0127,-0.0165,-0.0168,-0.0174,-0.0204,-0.0221,-0.0208,-0.0219,-0.0218,-0.0218,-0.0218,0,0.0083,0.0091,0.0112,0.0114,0.0121,0.0134,0.0137,0.0136,0.0148,0.0129,0.0133,0.0093,0.0079,0.0011,-0.0066,-0.0078,-0.0137,-0.0166,-0.0215,-0.0216,-0.0215,-0.0215,-0.0215,-0.0215,-0.0215,-0.0215,-0.0215,0,0.0113,0.0129,0.0129,0.014,0.0175,0.0166,0.0197,0.0194,0.02,0.0224,0.0168,0.0181,0.0087,0.0042,-0.0044,-0.0124,-0.0123,-0.0203,-0.0223,-0.0202,-0.02,-0.0227,-0.0227,-0.0217,-0.0216,-0.0216,-0.0216,0,0.0145,0.0143,0.0168,0.0181,0.019,0.0212,0.0237,0.026,0.0255,0.0285,0.0284,0.025,0.0195,0.0098,-0.0005,-0.0084,-0.0171,-0.0205,-0.0173,-0.0188,-0.0249,-0.0248,-0.0268,-0.0268,-0.0268,-0.0268,-0.0268,0,0.0161,0.0177,0.0201,0.022,0.0227,0.0255,0.0282,0.0288,0.0314,0.0335,0.0358,0.0321,0.0307,0.0158,0.0018,-0.0124,-0.0155,-0.0207,-0.0225,-0.0235,-0.0253,-0.0251,-0.0249,-0.0219,-0.0218,-0.0218,-0.0218,0,0.0194,0.0202,0.0221,0.026,0.0291,0.0326,0.036,0.0395,0.0414,0.0444,0.0482,0.0476,0.0348,0.0224,0.0034,-0.0065,-0.0181,-0.0205,-0.022,-0.0201,-0.019,-0.0207,-0.0207,-0.0215,-0.0215,-0.0215,-0.0216,-0.0216,0.022,0.0239,0.0264,0.0301,0.034,0.0392,0.0422,0.0473,0.053,0.0571,0.0571,0.0552,0.042,0.0181,0.0027,-0.015,-0.0154,-0.0228,-0.0228,-0.0229,-0.0207,-0.0195,-0.0218,-0.0218,-0.0219,-0.0219,-0.0219,0,0.0247,0.0265,0.0302,0.0344,0.0387,0.0403,0.0472,0.0504,0.0578,0.0613,0.0637,0.0516,0.0386,0.0218,-0.0032,-0.0176,-0.0195,-0.0229,-0.022,-0.0221,-0.0222,-0.02,-0.021,-0.021,-0.0211,-0.0211,0,0,0.0262,0.0293,0.0306,0.0371,0.0404,0.0455,0.0493,0.0558,0.0592,0.0627,0.0615,0.0597,0.0419,0.0243,0.006,-0.0081,-0.0128,-0.0114,-0.0105,-0.0074,-0.0074,-0.0203,-0.0166,0,0,0,0,0]}],[{"header":{"parameterUnit":"m.s-1","parameterCategory":2,"la1":30.2991,"la2":30.254,"lo1":-89.0895,"lo2":-89.0444,"dy":0.0017,"dx":0.0017,"nx":28,"ny":28,"refTime":"2024-08-22T21:00:00:Z","depth":"4","parameterNumber":2,"parameterNumberName":"U-component_of_CURRENTS"},"data":[0,0,0,0,0,0,0,0,0,0,0,0,0,0,0,0,0,0,0,0,0,0,0,0,0,0,0,0,0,0,0,0,0,0,0,0,0,0,0,0,0,0,0,0,0,0,0,0,0,0,0,0,0,0,0,0,0,0,0.1158,0.1158,0,0.1195,0.1196,0.1196,0.1234,0.1234,0.1235,0.1236,0.128,0.1281,0.1281,0,0,0,0,0,0,0,0,0,0,0,0,0,0.1122,0.1122,0.1158,0.1158,0.1159,0.1195,0.1196,0.1196,0.1234,0.1234,0.1235,0.1236,0.128,0.1281,0.1281,0,0,0,0,0,0,0,0,0,0,0,0,0,0.1145,0.1122,0.1158,0.1183,0.1186,0.1195,0.1196,0.1196,0.1233,0.1234,0.1235,0.1236,0.128,0.1281,0.1281,0.1268,0,0,0.1284,0.1285,0,0,0,0,0,0,0,0,0.1144,0.1146,0.1179,0.1181,0.1185,0.1212,0.12,0.1221,0.1233,0.1214,0.1236,0.1237,0.1258,0.1261,0.1264,0.127,0.1272,0.1284,0.1285,0.1285,0.1285,0,0,0,0,0,0,0,0.1142,0.1145,0.1171,0.1179,0.1183,0.1194,0.1198,0.1204,0.1229,0.1216,0.1219,0.1225,0.126,0.1263,0.1265,0.1273,0.1284,0.1285,0.1286,0.1286,0.1359,0.1361,0,0,0,0,0,0,0.1139,0.1143,0.117,0.1173,0.1168,0.1194,0.1198,0.1201,0.1229,0.1235,0.1224,0.1227,0.1261,0.1264,0.1267,0.133,0.1285,0.1286,0.1287,0.1358,0.136,0.1361,0,0,0,0,0,0,0.1138,0.1141,0.1169,0.116,0.1165,0.1194,0.1196,0.1201,0.1233,0.1236,0.1241,0.1254,0.1262,0.1266,0.13,0.1329,0.1286,0.1287,0.1356,0.1358,0.136,0.1405,0,0,0,0,0,0,0.1137,0.114,0.1154,0.116,0.1165,0.1193,0.1196,0.1201,0.1234,0.1238,0.1262,0.1266,0.1263,0.1299,0.1301,0.1329,0.1288,0.1354,0.1357,0.136,0.1402,0.1409,0.1415,0,0,0,0,0,0.1135,0.1145,0.1155,0.1159,0.1179,0.1194,0.1199,0.1221,0.1235,0.1252,0.1273,0.1267,0.1317,0.1301,0.1303,0.1332,0.1353,0.1356,0.1359,0.1399,0.1408,0.1414,0,0,0,0,0,0,0.1138,0.1151,0.1161,0.1176,0.1194,0.1202,0.1224,0.1236,0.1265,0.1278,0.128,0.1285,0.1327,0.1324,0.1305,0.1362,0.1336,0.134,0.1366,0.1373,0.1379,0.1375,0.1289,0,0,0,0,0,0.1144,0.1158,0.117,0.1187,0.1198,0.1216,0.1231,0.1246,0.1265,0.1281,0.1298,0.1318,0.1336,0.1351,0.1364,0.1392,0.1387,0.1414,0.1421,0.1426,0.1425,0.1446,0.1453,0.1371,0.1371,0.1371,0,0,0.115,0.116,0.1169,0.1189,0.1207,0.1225,0.1228,0.1259,0.1281,0.1279,0.1326,0.1341,0.1348,0.1383,0.1401,0.1388,0.1448,0.143,0.1434,0.143,0.145,0.1458,0.1464,0.1374,0.1373,0.1373,0,0,0.1161,0.1179,0.1195,0.1212,0.1243,0.1252,0.1267,0.1293,0.1316,0.1353,0.1362,0.1394,0.1423,0.1434,0.1441,0.1489,0.148,0.1502,0.153,0.1551,0.1557,0.1563,0.157,0.1576,0.1505,0.1505,0.1505,0,0.1173,0.1188,0.1203,0.1223,0.1242,0.1267,0.129,0.1311,0.1348,0.1369,0.1378,0.1433,0.1444,0.1478,0.15,0.1502,0.1509,0.15,0.1558,0.1563,0.1568,0.1574,0.158,0.1508,0.1508,0.1507,0.1507,0,0.1186,0.1212,0.1225,0.1255,0.1278,0.1304,0.1331,0.1365,0.1397,0.1416,0.147,0.1487,0.1519,0.1533,0.1532,0.1578,0.157,0.1562,0.1536,0.1579,0.1582,0.1588,0.1512,0.1511,0.151,0.1509,0,0,0.1178,0.1225,0.1234,0.1256,0.13,0.1316,0.1361,0.14,0.1432,0.1476,0.1516,0.1556,0.1574,0.1584,0.1594,0.1615,0.166,0.1611,0.1611,0.1612,0.1704,0.1609,0.1605,0.1667,0.1668,0.1669,0.1692,0,0.119,0.1227,0.1251,0.1295,0.1316,0.1355,0.1389,0.143,0.147,0.1515,0.1546,0.1588,0.1591,0.1617,0.1641,0.1658,0.1677,0.1654,0.1666,0.1666,0.1571,0.1609,0.1673,0.1696,0.1697,0.1698,0.1699,0,0.1191,0.1218,0.1261,0.1313,0.1328,0.1361,0.1422,0.1458,0.1519,0.1552,0.16,0.1624,0.1673,0.1665,0.1713,0.1703,0.171,0.1715,0.1715,0.1612,0.1581,0.1644,0.1708,0.1707,0.1706,0.1706,0.1705,0,0.1163,0.1223,0.1259,0.1278,0.1339,0.1374,0.1414,0.1475,0.1506,0.1583,0.1612,0.1668,0.1703,0.1727,0.175,0.1741,0.1791,0.1772,0.1688,0.1682,0.1739,0.1733,0.1799,0.1799,0.1799,0.1799,0.1799,0,0.1148,0.118,0.1255,0.1271,0.1317,0.137,0.1422,0.147,0.1534,0.1565,0.1633,0.1658,0.1724,0.1758,0.1767,0.1745,0.1806,0.1694,0.1683,0.1759,0.1754,0.1743,0.1736,0.18,0.1799,0.1799,0.1799,0,0.1104,0.1155,0.1198,0.1276,0.1303,0.1339,0.1417,0.1445,0.152,0.1565,0.1591,0.1667,0.1709,0.1755,0.1797,0.1753,0.1749,0.1725,0.1808,0.18,0.162,0.1615,0.1621,0.1618,0.1615,0.1613,0.1611,0,0.1081,0.1101,0.119,0.1216,0.1257,0.1316,0.1348,0.1429,0.1456,0.155,0.1558,0.1632,0.1672,0.1647,0.1711,0.1719,0.1702,0.1686,0.1644,0.1614,0.1603,0.1603,0.1602,0.1607,0.1606,0.1606,0.1605,0,0.1034,0.108,0.1116,0.117,0.1215,0.1249,0.1307,0.131,0.1396,0.1476,0.1482,0.1501,0.1545,0.1575,0.1601,0.1604,0.1688,0.1658,0.1662,0.1622,0.1597,0.1588,0.1591,0.1596,0.1597,0.1598,0.1599,0,0.1004,0.1017,0.1073,0.1108,0.116,0.1165,0.1202,0.1227,0.1258,0.1357,0.1358,0.1438,0.1521,0.1516,0.1539,0.1539,0.151,0.1455,0.147,0.1481,0.1427,0.1374,0.1294,0,0,0,0,0,0.0965,0.0971,0.1003,0.1032,0.1076,0.1104,0.1164,0.1201,0.1279,0.1247,0.1295,0.1326,0.1351,0.1398,0.137,0.1489,0.1526,0.1451,0.1472,0.1545,0.1555,0.1507,0,0,0,0,0,0,0.0939,0.097,0.0977,0.0958,0.0962,0.0995,0.1028,0.1083,0.1068,0.1156,0.1176,0.125,0.1298,0.1352,0.1345,0.1361,0.1348,0.1509,0.1506,0.1539,0.1548,0.1557,0.1511,0,0,0,0,0]},{"header":{"parameterUnit":"m.s-1","parameterCategory":2,"la1":30.2991,"la2":30.254,"lo1":-89.0895,"lo2":-89.0444,"dy":0.0017,"dx":0.0017,"nx":28,"ny":28,"refTime":"2024-08-22T21:00:00:Z","depth":"4","parameterNumber":3,"parameterNumberName":"V-component_of_CURRENTS"},"data":[0,0,0,0,0,0,0,0,0,0,0,0,0,0,0,0,0,0,0,0,0,0,0,0,0,0,0,0,0,0,0,0,0,0,0,0,0,0,0,0,0,0,0,0,0,0,0,0,0,0,0,0,0,0,0,0,0,0,0.0086,0.0086,0,0.0056,0.0055,0.0055,0.0041,0.0041,0.0041,0.0041,0.0008,0.0008,0.0007,0,0,0,0,0,0,0,0,0,0,0,0,0,0.0104,0.0104,0.0086,0.0086,0.0085,0.0056,0.0055,0.0055,0.0041,0.0041,0.0041,0.0041,0.0009,0.0008,0.0007,0,0,0,0,0,0,0,0,0,0,0,0,0,0.0088,0.0104,0.0086,0.0075,0.0073,0.0056,0.0055,0.0055,0.0041,0.0041,0.0041,0.0041,0.0009,0.0008,0.0006,-0.0002,0,0,0.0002,0.0002,0,0,0,0,0,0,0,0,0.0089,0.0087,0.0077,0.0075,0.0074,0.0052,0.005,0.0036,0.0041,0.0053,0.0041,0.0041,0.0023,0.002,0.0015,-0.0004,-0.0005,0.0002,0.0001,0.0001,0.0001,0,0,0,0,0,0,0,0.009,0.0088,0.0074,0.0076,0.0075,0.0062,0.006,0.0047,0.0038,0.0052,0.0051,0.0048,0.0022,0.0016,0.0014,-0.0006,0.0002,0.0001,0.0,-0.0,-0.004,-0.0041,0,0,0,0,0,0,0.0095,0.0089,0.0075,0.0073,0.0082,0.0062,0.0059,0.0059,0.0038,0.0035,0.0048,0.0047,0.0018,0.0015,0.0013,-0.0,0.0001,-0.0,-0.0001,-0.004,-0.004,-0.0041,0,0,0,0,0,0,0.0096,0.0094,0.0076,0.008,0.0077,0.0061,0.0061,0.0059,0.0052,0.0035,0.0032,0.0044,0.0018,0.0014,0.0001,-0.0001,-0.0001,-0.0002,-0.004,-0.004,-0.0041,-0.0025,0,0,0,0,0,0,0.0096,0.0095,0.0096,0.0081,0.0077,0.0065,0.0061,0.0058,0.005,0.0049,0.0031,0.0028,0.0018,0.0003,0.0,-0.0003,-0.0003,-0.0039,-0.004,-0.004,-0.0025,-0.0024,-0.0024,0,0,0,0,0,0.0097,0.0099,0.0097,0.0095,0.008,0.0065,0.0062,0.0051,0.005,0.0046,0.0035,0.0029,-0.0002,0.0002,-0.0002,-0.0005,-0.0039,-0.004,-0.004,-0.0025,-0.0024,-0.0024,0,0,0,0,0,0,0.0107,0.0097,0.0094,0.0093,0.008,0.0063,0.0059,0.0052,0.004,0.004,0.0026,0.0022,0.0008,-0.0001,0.0004,-0.0019,-0.0022,-0.0024,-0.0009,-0.0009,-0.0009,0.0001,-0.0004,0,0,0,0,0,0.0111,0.0111,0.0096,0.0095,0.009,0.0075,0.0068,0.006,0.0048,0.0043,0.003,0.0016,0.0002,-0.0005,-0.0019,-0.003,-0.0038,-0.0036,-0.0035,-0.0035,-0.0031,-0.0046,-0.0046,-0.0043,-0.0043,-0.0043,0,0,0.0114,0.0109,0.0109,0.0097,0.0088,0.0081,0.0071,0.0062,0.0057,0.0041,0.0032,0.0016,-0.0001,-0.0014,-0.0021,-0.0022,-0.0041,-0.0036,-0.0035,-0.0031,-0.0047,-0.0047,-0.0047,-0.0043,-0.0043,-0.0043,0,0,0.0117,0.0117,0.0116,0.0107,0.0094,0.0086,0.0084,0.0067,0.0061,0.0048,0.0036,0.002,-0.0001,-0.0014,-0.0022,-0.0029,-0.0039,-0.0035,-0.0025,-0.004,-0.004,-0.004,-0.005,-0.0052,-0.0034,-0.0034,-0.0034,0,0.0121,0.0121,0.0112,0.0107,0.0105,0.009,0.0088,0.0078,0.0058,0.0055,0.0047,0.0017,-0.0,-0.0013,-0.0017,-0.0028,-0.0035,-0.0023,-0.0038,-0.0039,-0.0039,-0.005,-0.0051,-0.0033,-0.0033,-0.0033,-0.0034,0,0.0121,0.0122,0.0121,0.0115,0.0109,0.0105,0.0093,0.0087,0.0079,0.0067,0.0052,0.0028,0.0013,0.0,-0.0011,-0.0024,-0.0028,-0.0036,-0.0037,-0.0039,-0.005,-0.0052,-0.0032,-0.0033,-0.0033,-0.0033,0,0,0.0128,0.0123,0.0124,0.0127,0.0116,0.0113,0.0109,0.0101,0.0105,0.008,0.008,0.0046,0.0035,0.0024,0.0006,-0.0011,-0.0027,-0.0023,-0.0024,-0.0028,-0.0055,-0.0058,-0.0061,-0.0036,-0.0036,-0.0037,-0.0061,0,0.0131,0.0133,0.0128,0.0134,0.0135,0.0127,0.013,0.0121,0.0111,0.0107,0.008,0.007,0.0044,0.0039,0.0017,-0.0011,-0.0031,-0.0019,-0.0057,-0.0058,-0.0057,-0.0063,-0.0037,-0.0063,-0.0063,-0.0063,-0.0064,0,0.0134,0.0137,0.0143,0.0153,0.0154,0.0157,0.0165,0.0162,0.0151,0.0144,0.0126,0.0107,0.0082,0.006,0.001,0.002,-0.0017,-0.0044,-0.0045,-0.0054,-0.0065,-0.0062,-0.0067,-0.0067,-0.0067,-0.0067,-0.0066,0,0.0147,0.015,0.0161,0.0162,0.0166,0.0174,0.0178,0.0174,0.0183,0.0168,0.0173,0.0137,0.0129,0.0077,0.0021,0.0016,-0.0032,-0.0047,-0.0086,-0.0087,-0.0083,-0.0082,-0.0088,-0.0088,-0.0088,-0.0088,-0.0088,0,0.0155,0.0164,0.0171,0.0176,0.0198,0.0193,0.0214,0.0212,0.0218,0.0235,0.0195,0.0201,0.0133,0.0099,0.0036,-0.0025,-0.0022,-0.0083,-0.0094,-0.0076,-0.0074,-0.0084,-0.0083,-0.0089,-0.0089,-0.0089,-0.0089,0,0.0165,0.0168,0.0183,0.0196,0.0205,0.0219,0.0244,0.026,0.026,0.0281,0.0281,0.0255,0.0209,0.0138,0.006,0.0004,-0.0062,-0.0089,-0.0056,-0.0064,-0.0111,-0.0109,-0.0133,-0.0134,-0.0134,-0.0134,-0.0134,0,0.0168,0.0177,0.0201,0.0217,0.0224,0.0247,0.0268,0.0279,0.0298,0.0315,0.033,0.03,0.0269,0.0166,0.008,-0.0037,-0.0061,-0.0098,-0.0117,-0.0108,-0.0116,-0.0114,-0.0112,-0.0135,-0.0135,-0.0135,-0.0135,0,0.0176,0.0188,0.0202,0.0234,0.026,0.0291,0.032,0.0342,0.0361,0.0364,0.0374,0.0321,0.0271,0.0178,0.0089,0.0001,-0.0075,-0.0102,-0.0102,-0.0121,-0.011,-0.0117,-0.0115,-0.0136,-0.0136,-0.0136,-0.0136,0,0.0186,0.0198,0.0221,0.025,0.0286,0.0326,0.034,0.0367,0.0389,0.0407,0.0412,0.0354,0.0322,0.0198,0.0117,0.0031,-0.0,-0.0041,-0.0045,-0.0045,-0.0019,0.0007,0.001,0,0,0,0,0,0.0191,0.0206,0.0234,0.0267,0.0305,0.0326,0.0373,0.0385,0.0409,0.0422,0.0419,0.0371,0.026,0.0213,0.0127,0.0096,-0.0025,-0.001,-0.0075,-0.0141,-0.014,-0.0126,0,0,0,0,0,0,0.0194,0.0219,0.0231,0.0277,0.0301,0.0346,0.0379,0.0397,0.0401,0.0414,0.0359,0.0334,0.0226,0.0308,0.0121,0.0095,0.0038,-0.0061,-0.0064,-0.0142,-0.0141,-0.014,-0.0125,0,0,0,0,0]}]]